"Period start","avg(HW err(1)/warn(2) (#))","avg(Visibility (m))","avg(Weather code (#))","avg(Precip intensity (mm/h))","min(HW err(1)/warn(2) (#))","max(HW err(1)/warn(2) (#))","std(HW err(1)/warn(2) (#))","med(HW err(1)/warn(2) (#))","min(Visibility (m))","max(Visibility (m))","std(Visibility (m))","med(Visibility (m))","min(Weather code (#))","max(Weather code (#))","std(Weather code (#))","med(Weather code (#))","min(Precip intensity (mm/h))","max(Precip intensity (mm/h))","std(Precip intensity (mm/h))","med(Precip intensity (mm/h))"
2014-06-23 00:00:00,0,47476,0,0.00,0,0,0,0,42535,50000,2433,47866,0,0,0,0,0.00,0.00,0.00,0.00
2014-06-23 00:10:00,0,46638,0,0.00,0,0,0,0,37313,50000,4726,48872,0,0,0,0,0.00,0.00,0.00,0.00
2014-06-23 00:20:00,0,44825,0,0.00,0,0,0,0,30086,50000,7706,49300,0,0,0,0,0.00,0.00,0.00,0.00
2014-06-23 00:30:00,0,47737,0,0.00,0,0,0,0,42444,50000,2507,48458,0,0,0,0,0.00,0.00,0.00,0.00
2014-06-23 00:40:00,0,46264,0,0.00,0,0,0,0,29175,50000,6615,49490,0,0,0,0,0.00,0.00,0.00,0.00
2014-06-23 00:50:00,0,46454,0,0.00,0,0,0,0,38298,50000,3026,47123,0,0,0,0,0.00,0.00,0.00,0.00
2014-06-23 01:00:00,0,43972,0,0.00,0,0,0,0,31887,50000,5669,43894,0,0,0,0,0.00,0.00,0.00,0.00
2014-06-23 01:10:00,0,40922,0,0.00,0,0,0,0,34713,48203,3794,40598,0,0,0,0,0.00,0.00,0.00,0.00
2014-06-23 01:20:00,0,43662,0,0.00,0,0,0,0,38241,48802,3206,43802,0,0,0,0,0.00,0.00,0.00,0.00
2014-06-23 01:30:00,0,44003,0,0.00,0,0,0,0,32842,50000,5304,44728,0,0,0,0,0.00,0.00,0.00,0.00
2014-06-23 01:40:00,0,40047,0,0.00,0,0,0,0,34237,50000,4640,39309,0,0,0,0,0.00,0.00,0.00,0.00
2014-06-23 01:50:00,0,39408,0,0.00,0,0,0,0,28072,50000,6268,41322,0,0,0,0,0.00,0.00,0.00,0.00
2014-06-23 02:00:00,0,37331,0,0.00,0,0,0,0,23519,48733,9321,41102,0,0,0,0,0.00,0.00,0.00,0.00
2014-06-23 02:10:00,0,42928,0,0.00,0,0,0,0,33418,50000,4510,43228,0,0,0,0,0.00,0.00,0.00,0.00
2014-06-23 02:20:00,0,38845,0,0.00,0,0,0,0,26885,47696,5767,40063,0,0,0,0,0.00,0.00,0.00,0.00
2014-06-23 02:30:00,0,42283,0,0.00,0,0,0,0,33173,50000,5145,41546,0,0,0,0,0.00,0.00,0.00,0.00
2014-06-23 02:40:00,0,39656,0,0.00,0,0,0,0,32007,47543,4261,40660,0,0,0,0,0.00,0.00,0.00,0.00
2014-06-23 02:50:00,0,42710,0,0.00,0,0,0,0,33828,50000,5708,43413,0,0,0,0,0.00,0.00,0.00,0.00
2014-06-23 03:00:00,0,41767,0,0.00,0,0,0,0,29547,49619,5132,42831,0,0,0,0,0.00,0.00,0.00,0.00
2014-06-23 03:10:00,0,35673,0,0.00,0,0,0,0,21090,47249,7141,35757,0,0,0,0,0.00,0.00,0.00,0.00
2014-06-23 03:20:00,0,45954,0,0.00,0,0,0,0,36153,50000,5139,49337,0,0,0,0,0.00,0.00,0.00,0.00
2014-06-23 03:30:00,0,45505,0,0.00,0,0,0,0,30594,50000,5855,48078,0,0,0,0,0.00,0.00,0.00,0.00
2014-06-23 03:40:00,0,38516,0,0.00,0,0,0,0,23960,50000,9542,41916,0,0,0,0,0.00,0.00,0.00,0.00
2014-06-23 03:50:00,0,45590,0,0.00,0,0,0,0,37079,50000,5472,48767,0,0,0,0,0.00,0.00,0.00,0.00
2014-06-23 04:00:00,0,48676,0,0.00,0,0,0,0,44460,50000,2166,50000,0,0,0,0,0.00,0.00,0.00,0.00
2014-06-23 04:10:00,0,46131,0,0.00,0,0,0,0,36392,50000,4201,47509,0,0,0,0,0.00,0.00,0.00,0.00
2014-06-23 04:20:00,0,40940,0,0.00,0,0,0,0,29379,50000,6853,41702,0,0,0,0,0.00,0.00,0.00,0.00
2014-06-23 04:30:00,0,41213,0,0.00,0,0,0,0,33195,49922,5057,40884,0,0,0,0,0.00,0.00,0.00,0.00
2014-06-23 04:40:00,0,44806,0,0.00,0,0,0,0,36929,49811,4869,47573,0,0,0,0,0.00,0.00,0.00,0.00
2014-06-23 04:50:00,0,41932,0,0.00,0,0,0,0,36220,48880,3726,41798,0,0,0,0,0.00,0.00,0.00,0.00
2014-06-23 05:00:00,0,42662,0,0.00,0,0,0,0,30485,50000,6058,43570,0,0,0,0,0.00,0.00,0.00,0.00
2014-06-23 05:10:00,0,46171,0,0.00,0,0,0,0,35482,50000,4646,48044,0,0,0,0,0.00,0.00,0.00,0.00
2014-06-23 05:20:00,0,47442,0,0.00,0,0,0,0,44585,50000,1948,46756,0,0,0,0,0.00,0.00,0.00,0.00
2014-06-23 05:30:00,0,49703,0,0.00,0,0,0,0,48317,50000,601,50000,0,0,0,0,0.00,0.00,0.00,0.00
2014-06-23 05:40:00,0,49272,0,0.00,0,0,0,0,46530,50000,1068,49871,0,0,0,0,0.00,0.00,0.00,0.00
2014-06-23 05:50:00,0,44413,0,0.00,0,0,0,0,36812,50000,4414,45304,0,0,0,0,0.00,0.00,0.00,0.00
2014-06-23 06:00:00,0,48611,0,0.00,0,0,0,0,43651,50000,2317,50000,0,0,0,0,0.00,0.00,0.00,0.00
2014-06-23 06:10:00,0,48244,0,0.00,0,0,0,0,44874,50000,2032,49221,0,0,0,0,0.00,0.00,0.00,0.00
2014-06-23 06:20:00,0,43563,0,0.00,0,0,0,0,33366,50000,4716,44064,0,0,0,0,0.00,0.00,0.00,0.00
2014-06-23 06:30:00,0,48216,0,0.00,0,0,0,0,43812,50000,2069,49101,0,0,0,0,0.00,0.00,0.00,0.00
2014-06-23 06:40:00,0,48054,0,0.00,0,0,0,0,42331,50000,2416,49255,0,0,0,0,0.00,0.00,0.00,0.00
2014-06-23 06:50:00,0,41266,0,0.00,0,0,0,0,37791,45680,2850,40672,0,0,0,0,0.00,0.00,0.00,0.00
2014-06-23 07:00:00,0,47237,0,0.00,0,0,0,0,44098,50000,2374,46652,0,0,0,0,0.00,0.00,0.00,0.00
2014-06-23 07:10:00,0,47964,0,0.00,0,0,0,0,41243,50000,3198,50000,0,0,0,0,0.00,0.00,0.00,0.00
2014-06-23 07:20:00,0,17269,56,19.82,0,0,0,0,5211,48708,13468,11358,0,63,19,62,0.00,45.85,16.24,20.17
2014-06-23 07:30:00,0,8218,62,16.48,0,0,0,0,4426,10667,1954,8718,61,62,0,62,9.00,29.80,6.78,13.62
2014-06-23 07:40:00,0,15432,61,7.88,0,0,0,0,6028,20843,4200,15388,61,62,0,61,2.45,13.45,3.55,8.88
2014-06-23 07:50:00,0,17759,61,7.54,0,0,0,0,12533,23968,3974,17014,61,62,0,61,1.50,15.20,3.97,6.50
2014-06-23 08:00:00,0,23660,61,11.29,0,0,0,0,7150,41310,11795,23555,61,62,0,61,0.05,36.20,12.94,3.63
2014-06-23 08:10:00,0,32016,37,0.09,0,0,0,0,16240,42112,7558,33663,0,61,30,61,0.00,0.30,0.12,0.00
2014-06-23 08:20:00,0,29379,46,0.09,0,0,0,0,21977,36892,5495,27881,0,51,15,51,0.00,0.35,0.12,0.03
2014-06-23 08:30:00,0,33968,33,0.26,0,0,0,0,24996,47388,6619,32360,0,61,27,51,0.00,0.60,0.22,0.35
2014-06-23 08:40:00,0,39851,52,1.69,0,0,0,0,26617,50000,7291,42492,51,61,3,52,0.15,6.05,1.92,0.85
2014-06-23 08:50:00,0,38040,60,1.13,0,0,0,0,26064,48259,6544,39982,52,61,3,61,0.15,2.30,0.73,0.97
2014-06-23 09:00:00,0,39131,52,0.78,0,0,0,0,18310,50000,10434,43066,51,52,0,52,0.20,2.95,0.75,0.55
2014-06-23 09:10:00,0,30259,60,1.32,0,0,0,0,20407,49198,9840,27218,52,61,3,61,0.40,3.10,0.81,1.18
2014-06-23 09:20:00,0,45418,52,0.33,0,0,0,0,33699,50000,5111,46990,51,61,3,51,0.05,0.75,0.24,0.28
2014-06-23 09:30:00,0,49844,22,0.02,0,0,0,0,48444,50000,467,50000,0,61,28,0,0.00,0.15,0.05,0.00
2014-06-23 09:40:00,0,50000,0,0.00,0,0,0,0,50000,50000,0,50000,0,0,0,0,0.00,0.00,0.00,0.00
2014-06-23 09:50:00,0,49805,0,0.00,0,0,0,0,48685,50000,419,50000,0,0,0,0,0.00,0.00,0.00,0.00
2014-06-23 10:00:00,0,49581,0,0.00,0,0,0,0,46504,50000,1046,50000,0,0,0,0,0.00,0.00,0.00,0.00
2014-06-23 10:10:00,0,42824,0,0.00,0,0,0,0,30214,50000,7372,45846,0,0,0,0,0.00,0.00,0.00,0.00
2014-06-23 10:20:00,0,50000,0,0.00,0,0,0,0,50000,50000,0,50000,0,0,0,0,0.00,0.00,0.00,0.00
2014-06-23 10:30:00,0,49590,0,0.00,0,0,0,0,45903,50000,1229,50000,0,0,0,0,0.00,0.00,0.00,0.00
2014-06-23 10:40:00,0,47767,0,0.00,0,0,0,0,39633,50000,3819,50000,0,0,0,0,0.00,0.00,0.00,0.00
2014-06-23 10:50:00,0,38570,0,0.00,0,0,0,0,27194,49643,7269,36832,0,0,0,0,0.00,0.00,0.00,0.00
2014-06-23 11:00:00,0,50000,0,0.00,0,0,0,0,50000,50000,0,50000,0,0,0,0,0.00,0.00,0.00,0.00
2014-06-23 11:10:00,0,50000,0,0.00,0,0,0,0,50000,50000,0,50000,0,0,0,0,0.00,0.00,0.00,0.00
2014-06-23 11:20:00,0,50000,0,0.00,0,0,0,0,50000,50000,0,50000,0,0,0,0,0.00,0.00,0.00,0.00
2014-06-23 11:30:00,0,49995,0,0.00,0,0,0,0,49951,50000,15,50000,0,0,0,0,0.00,0.00,0.00,0.00
2014-06-23 11:40:00,0,50000,0,0.00,0,0,0,0,50000,50000,0,50000,0,0,0,0,0.00,0.00,0.00,0.00
2014-06-23 11:50:00,0,50000,0,0.00,0,0,0,0,50000,50000,0,50000,0,0,0,0,0.00,0.00,0.00,0.00
2014-06-23 12:00:00,0,50000,0,0.00,0,0,0,0,50000,50000,0,50000,0,0,0,0,0.00,0.00,0.00,0.00
2014-06-23 12:10:00,0,50000,0,0.00,0,0,0,0,50000,50000,0,50000,0,0,0,0,0.00,0.00,0.00,0.00
2014-06-23 12:20:00,0,50000,0,0.00,0,0,0,0,50000,50000,0,50000,0,0,0,0,0.00,0.00,0.00,0.00
2014-06-23 12:30:00,0,49949,0,0.00,0,0,0,0,49487,50000,154,50000,0,0,0,0,0.00,0.00,0.00,0.00
2014-06-23 12:40:00,0,50000,0,0.00,0,0,0,0,50000,50000,0,50000,0,0,0,0,0.00,0.00,0.00,0.00
2014-06-23 12:50:00,0,50000,0,0.00,0,0,0,0,50000,50000,0,50000,0,0,0,0,0.00,0.00,0.00,0.00
2014-06-23 13:00:00,0,50000,0,0.00,0,0,0,0,50000,50000,0,50000,0,0,0,0,0.00,0.00,0.00,0.00
2014-06-23 13:10:00,0,49379,18,0.22,0,0,0,0,46171,50000,1284,50000,0,61,28,0,0.00,2.00,0.60,0.00
2014-06-23 13:20:00,0,49935,18,0.01,0,0,0,0,49480,50000,157,50000,0,61,28,0,0.00,0.10,0.03,0.00
2014-06-23 13:30:00,0,49959,0,0.00,0,0,0,0,49590,50000,123,50000,0,0,0,0,0.00,0.00,0.00,0.00
2014-06-23 13:40:00,0,49992,0,0.00,0,0,0,0,49923,50000,23,50000,0,0,0,0,0.00,0.00,0.00,0.00
2014-06-23 13:50:00,0,49501,0,0.00,0,0,0,0,47386,50000,999,50000,0,0,0,0,0.00,0.00,0.00,0.00
2014-06-23 14:00:00,0,50000,0,0.00,0,0,0,0,50000,50000,0,50000,0,0,0,0,0.00,0.00,0.00,0.00
2014-06-23 14:10:00,0,50000,0,0.00,0,0,0,0,50000,50000,0,50000,0,0,0,0,0.00,0.00,0.00,0.00
2014-06-23 14:20:00,0,50000,0,0.00,0,0,0,0,50000,50000,0,50000,0,0,0,0,0.00,0.00,0.00,0.00
2014-06-23 14:30:00,0,49933,0,0.00,0,0,0,0,49531,50000,140,50000,0,0,0,0,0.00,0.00,0.00,0.00
2014-06-23 14:40:00,0,43428,0,0.00,0,0,0,0,37830,50000,4309,42130,0,0,0,0,0.00,0.00,0.00,0.00
2014-06-23 14:50:00,0,42008,0,0.00,0,0,0,0,33224,47171,4447,43154,0,0,0,0,0.00,0.00,0.00,0.00
2014-06-23 15:00:00,0,46255,0,0.00,0,0,0,0,40201,50000,3319,47292,0,0,0,0,0.00,0.00,0.00,0.00
2014-06-23 15:10:00,0,23040,43,5.85,0,0,0,0,13720,47302,11434,16660,0,62,28,61,0.00,14.05,5.03,6.25
2014-06-23 15:20:00,0,19317,61,3.17,0,0,0,0,14940,25289,3075,18158,61,61,0,61,1.40,5.90,1.09,3.05
2014-06-23 15:30:00,1,12290,61,3.78,0,2,1,0,9649,15814,2129,11281,61,61,0,61,1.75,6.85,1.55,3.78
2014-06-23 15:40:00,2,7653,61,7.46,0,2,1,2,4547,9646,1343,7844,61,62,0,61,3.65,16.50,3.72,6.18
2014-06-23 15:50:00,2,7442,62,14.95,2,2,0,2,5943,8033,591,7516,61,62,0,62,5.35,36.70,9.11,11.55
2014-06-23 16:00:00,2,9072,61,9.97,2,2,0,2,5664,12297,2127,9243,61,62,0,61,5.60,18.25,3.46,9.12
2014-06-23 16:10:00,2,13023,61,5.58,2,2,0,2,11199,15448,1250,13276,61,62,0,61,3.60,11.65,2.30,5.20
2014-06-23 16:20:00,2,22301,61,2.88,2,2,0,2,16668,32601,5253,21038,61,61,0,61,1.40,4.60,1.02,2.60
2014-06-23 16:30:00,2,27980,61,1.92,2,2,0,2,22467,36064,4236,27105,61,61,0,61,0.75,4.60,1.06,1.62
2014-06-23 16:40:00,2,17166,61,6.09,2,2,0,2,13755,24846,3499,16339,61,62,0,61,0.95,13.10,3.75,6.07
2014-06-23 16:50:00,2,15444,61,8.88,2,2,0,2,12400,19564,1864,15258,61,62,0,61,6.05,11.85,1.72,8.30
2014-06-23 17:00:00,2,18136,61,5.60,2,2,0,2,14355,20213,2021,18755,61,61,0,61,3.10,8.80,1.93,5.38
2014-06-23 17:10:00,2,34510,61,1.48,2,2,0,2,22307,44939,6934,36095,61,61,0,61,0.60,4.50,1.09,1.15
2014-06-23 17:20:00,2,25741,61,1.78,2,2,0,2,17564,37232,6750,24762,61,61,0,61,0.45,3.75,1.09,1.70
2014-06-23 17:30:00,1,37867,55,0.23,0,2,1,2,31203,44386,4218,39000,51,61,5,51,0.05,0.80,0.24,0.10
2014-06-23 17:40:00,0,47850,0,0.00,0,0,0,0,36503,50000,4097,49614,0,0,0,0,0.00,0.00,0.00,0.00
2014-06-23 17:50:00,0,49831,18,0.11,0,0,0,0,48879,50000,360,50000,0,61,28,0,0.00,0.60,0.21,0.00
2014-06-23 18:00:00,1,48435,60,1.26,0,2,1,2,40991,50000,2841,50000,52,61,3,61,0.60,2.35,0.59,0.92
2014-06-23 18:10:00,2,49776,55,0.36,0,2,1,2,48852,50000,449,50000,51,61,5,52,0.05,1.25,0.38,0.17
2014-06-23 18:20:00,2,49752,51,0.07,0,2,1,2,47523,50000,743,50000,51,51,0,51,0.00,0.20,0.07,0.05
2014-06-23 18:30:00,1,49435,5,0.01,0,2,1,2,46857,50000,1139,50000,0,51,15,0,0.00,0.05,0.02,0.00
2014-06-23 18:40:00,0,50000,0,0.00,0,0,0,0,50000,50000,0,50000,0,0,0,0,0.00,0.00,0.00,0.00
2014-06-23 18:50:00,0,50000,0,0.00,0,0,0,0,50000,50000,0,50000,0,0,0,0,0.00,0.00,0.00,0.00
2014-06-23 19:00:00,0,50000,0,0.00,0,0,0,0,50000,50000,0,50000,0,0,0,0,0.00,0.00,0.00,0.00
2014-06-23 19:10:00,0,50000,0,0.00,0,0,0,0,50000,50000,0,50000,0,0,0,0,0.00,0.00,0.00,0.00
2014-06-23 19:20:00,0,49303,0,0.00,0,0,0,0,44091,50000,1761,50000,0,0,0,0,0.00,0.00,0.00,0.00
2014-06-23 19:30:00,0,50000,0,0.00,0,0,0,0,50000,50000,0,50000,0,0,0,0,0.00,0.00,0.00,0.00
2014-06-23 19:40:00,0,50000,0,0.00,0,0,0,0,50000,50000,0,50000,0,0,0,0,0.00,0.00,0.00,0.00
2014-06-23 19:50:00,0,50000,0,0.00,0,0,0,0,50000,50000,0,50000,0,0,0,0,0.00,0.00,0.00,0.00
2014-06-23 20:00:00,0,48585,28,0.06,0,0,0,0,42911,50000,2721,50000,0,61,28,26,0.00,0.15,0.06,0.05
2014-06-23 20:10:00,0,49686,10,0.00,0,0,0,0,47759,50000,696,50000,0,51,20,0,0.00,0.00,0.00,0.00
2014-06-23 20:20:00,0,50000,0,0.00,0,0,0,0,50000,50000,0,50000,0,0,0,0,0.00,0.00,0.00,0.00
2014-06-23 20:30:00,0,50000,0,0.00,0,0,0,0,50000,50000,0,50000,0,0,0,0,0.00,0.00,0.00,0.00
2014-06-23 20:40:00,0,49837,0,0.00,0,0,0,0,48373,50000,488,50000,0,0,0,0,0.00,0.00,0.00,0.00
2014-06-23 20:50:00,0,50000,0,0.00,0,0,0,0,50000,50000,0,50000,0,0,0,0,0.00,0.00,0.00,0.00
2014-06-23 21:00:00,0,50000,0,0.00,0,0,0,0,50000,50000,0,50000,0,0,0,0,0.00,0.00,0.00,0.00
2014-06-23 21:10:00,0,49733,0,0.00,0,0,0,0,48551,50000,536,50000,0,0,0,0,0.00,0.00,0.00,0.00
2014-06-23 21:20:00,0,49728,0,0.00,0,0,0,0,48266,50000,569,50000,0,0,0,0,0.00,0.00,0.00,0.00
2014-06-23 21:30:00,0,50000,0,0.00,0,0,0,0,50000,50000,0,50000,0,0,0,0,0.00,0.00,0.00,0.00
2014-06-23 21:40:00,0,50000,0,0.00,0,0,0,0,50000,50000,0,50000,0,0,0,0,0.00,0.00,0.00,0.00
2014-06-23 21:50:00,0,50000,0,0.00,0,2,1,0,50000,50000,0,50000,0,0,0,0,0.00,0.00,0.00,0.00
2014-06-23 22:00:00,0,50000,0,0.00,0,2,1,0,50000,50000,0,50000,0,0,0,0,0.00,0.00,0.00,0.00
2014-06-23 22:10:00,2,50000,0,0.00,0,2,1,2,50000,50000,0,50000,0,0,0,0,0.00,0.00,0.00,0.00
2014-06-23 22:20:00,0,50000,0,0.00,0,2,1,0,50000,50000,0,50000,0,0,0,0,0.00,0.00,0.00,0.00
2014-06-23 22:30:00,0,49960,0,0.00,0,0,0,0,49605,50000,118,50000,0,0,0,0,0.00,0.00,0.00,0.00
2014-06-23 22:40:00,0,49731,0,0.00,0,0,0,0,48166,50000,580,50000,0,0,0,0,0.00,0.00,0.00,0.00
2014-06-23 22:50:00,0,47197,48,0.42,0,0,0,0,40242,50000,3485,49040,0,61,16,51,0.00,0.90,0.28,0.43
2014-06-23 23:00:00,0,46225,57,1.31,0,0,0,0,36589,50000,4525,47874,51,61,5,61,0.15,3.70,1.03,1.25
2014-06-23 23:10:00,1,50000,52,0.16,0,2,1,0,50000,50000,0,50000,51,61,3,51,0.00,0.35,0.13,0.12
2014-06-23 23:20:00,0,49423,6,0.00,0,0,0,0,48186,50000,762,50000,0,61,18,0,0.00,0.00,0.00,0.00
2014-06-23 23:30:00,0,49213,0,0.00,0,0,0,0,45683,50000,1584,50000,0,0,0,0,0.00,0.00,0.00,0.00
2014-06-23 23:40:00,0,49019,0,0.00,0,0,0,0,45082,50000,1788,50000,0,0,0,0,0.00,0.00,0.00,0.00
2014-06-23 23:50:00,0,49615,0,0.00,0,0,0,0,46456,50000,1055,50000,0,0,0,0,0.00,0.00,0.00,0.00
